• Em Portugal
  • Lista de países
  • Para 7 dias
  • Temperatura da água
  • Mapas de satélite
  • Mapa do tempo
  • Widgets de tempo
  • user-avatar
    Iniciar Sessão

    Previsão horária em Silistra

    Hoje, 24 Setembro, Segunda-feira

    Tempo Temperatura Precipitação Vento Pressão Humidade
    00:00 +19°C° 0 mm 3 m/s 759 mmHg 83%
    01:00 +19°C° 0 mm 3 m/s 758 mmHg 85%
    02:00 +19°C° 0 mm 3 m/s 757 mmHg 87%
    03:00 +19°C° 0 mm 3 m/s 757 mmHg 87%
    04:00 +19°C° 0 mm 3 m/s 756 mmHg 88%
    05:00 +19°C° 0 mm 3 m/s 756 mmHg 88%
    06:00 +20°C° 0 mm 4 m/s 755 mmHg 80%
    07:00 +22°C° 0 mm 4 m/s 755 mmHg 71%
    08:00 +23°C° 0 mm 5 m/s 754 mmHg 59%
    09:00 +27°C° 0 mm 5 m/s 754 mmHg 51%
    10:00 +29°C° 0 mm 5 m/s 753 mmHg 42%
    11:00 +33°C° 0 mm 6 m/s 753 mmHg 33%
    12:00 +34°C° 0 mm 6 m/s 752 mmHg 31%
    13:00 +34°C° 0 mm 6 m/s 752 mmHg 28%
    14:00 +35°C° 0 mm 6 m/s 751 mmHg 26%
    15:00 +34°C° 0 mm 7 m/s 752 mmHg 29%
    16:00 +33°C° 0 mm 7 m/s 752 mmHg 32%
    17:00 +31°C° 0 mm 8 m/s 753 mmHg 35%
    18:00 +26°C° 0 mm 8 m/s 754 mmHg 45%
    19:00 +21°C° 0 mm 8 m/s 756 mmHg 55%
    20:00 +16°C° 0 mm 7 m/s 757 mmHg 65%
    21:00 +15°C° 0.3 mm 7 m/s 758 mmHg 68%
    22:00 +14°C° 0.3 mm 6 m/s 759 mmHg 71%
    23:00 +13°C° 0.3 mm 6 m/s 761 mmHg 74%

    Amanhã, 25 Setembro, Terça-feira

    Tempo Temperatura Precipitação Vento Pressão Humidade
    00:00 +13°C° 0.2 mm 5 m/s 761 mmHg 74%
    01:00 +12°C° 0.2 mm 4 m/s 761 mmHg 73%
    02:00 +12°C° 0.2 mm 3 m/s 762 mmHg 72%
    03:00 +13°C° 0 mm 2 m/s 762 mmHg 72%
    04:00 +13°C° 0 mm 2 m/s 762 mmHg 71%
    05:00 +13°C° 0 mm 2 m/s 762 mmHg 71%
    06:00 +13°C° 0 mm 2 m/s 763 mmHg 68%
    07:00 +14°C° 0 mm 2 m/s 763 mmHg 65%
    08:00 +13°C° 0 mm 3 m/s 764 mmHg 63%
    09:00 +14°C° 0.1 mm 3 m/s 764 mmHg 57%
    10:00 +14°C° 0.1 mm 3 m/s 764 mmHg 51%
    11:00 +16°C° 0.1 mm 3 m/s 764 mmHg 46%
    12:00 +17°C° 0.2 mm 3 m/s 764 mmHg 43%
    13:00 +17°C° 0.2 mm 4 m/s 764 mmHg 41%
    14:00 +17°C° 0.2 mm 4 m/s 764 mmHg 38%
    15:00 +17°C° 0 mm 4 m/s 764 mmHg 35%
    16:00 +17°C° 0 mm 4 m/s 764 mmHg 33%
    17:00 +17°C° 0 mm 4 m/s 765 mmHg 30%
    18:00 +15°C° 0 mm 4 m/s 765 mmHg 33%
    19:00 +14°C° 0 mm 3 m/s 766 mmHg 36%
    20:00 +12°C° 0 mm 3 m/s 767 mmHg 39%
    21:00 +12°C° 0 mm 3 m/s 767 mmHg 41%
    22:00 +11°C° 0 mm 3 m/s 768 mmHg 44%
    23:00 +10°C° 0 mm 3 m/s 768 mmHg 46%

    Depois de amanhã, 26 Setembro, Quarta-feira

    Tempo Temperatura Precipitação Vento Pressão Humidade
    00:00 +10°C° 0 mm 3 m/s 769 mmHg 48%
    01:00 +9°C° 0 mm 3 m/s 769 mmHg 50%
    02:00 +9°C° 0 mm 3 m/s 769 mmHg 53%
    03:00 +9°C° 0 mm 3 m/s 769 mmHg 55%
    04:00 +8°C° 0 mm 3 m/s 769 mmHg 57%
    05:00 +8°C° 0 mm 3 m/s 769 mmHg 59%
    06:00 +8°C° 0 mm 4 m/s 770 mmHg 56%
    07:00 +9°C° 0 mm 5 m/s 770 mmHg 54%
    08:00 +10°C° 0 mm 6 m/s 771 mmHg 51%
    09:00 +11°C° 0 mm 7 m/s 771 mmHg 46%
    10:00 +12°C° 0 mm 7 m/s 771 mmHg 42%
    11:00 +15°C° 0 mm 7 m/s 771 mmHg 37%
    12:00 +15°C° 0 mm 7 m/s 771 mmHg 35%
    13:00 +16°C° 0 mm 7 m/s 770 mmHg 33%
    14:00 +16°C° 0 mm 7 m/s 770 mmHg 31%
    15:00 +16°C° 0 mm 6 m/s 770 mmHg 31%
    16:00 +15°C° 0 mm 6 m/s 769 mmHg 31%
    17:00 +15°C° 0 mm 6 m/s 769 mmHg 32%
    18:00 +13°C° 0 mm 5 m/s 770 mmHg 35%
    19:00 +12°C° 0 mm 4 m/s 770 mmHg 38%
    20:00 +11°C° 0 mm 3 m/s 770 mmHg 42%
    21:00 +10°C° 0 mm 3 m/s 770 mmHg 44%
    22:00 +9°C° 0 mm 3 m/s 771 mmHg 46%
    23:00 +9°C° 0 mm 2 m/s 771 mmHg 48%

    27 Setembro, Quinta-feira

    Tempo Temperatura Precipitação Vento Pressão Humidade
    00:00 +8°C° 0 mm 2 m/s 771 mmHg 50%
    01:00 +8°C° 0 mm 2 m/s 770 mmHg 52%
    02:00 +7°C° 0 mm 2 m/s 770 mmHg 54%
    03:00 +7°C° 0 mm 2 m/s 770 mmHg 55%
    04:00 +7°C° 0 mm 1 m/s 770 mmHg 56%
    05:00 +7°C° 0 mm 1 m/s 769 mmHg 58%
    06:00 +8°C° 0 mm 1 m/s 769 mmHg 53%
    07:00 +8°C° 0 mm 2 m/s 769 mmHg 49%
    08:00 +10°C° 0 mm 2 m/s 769 mmHg 44%
    09:00 +12°C° 0 mm 2 m/s 769 mmHg 39%
    10:00 +14°C° 0 mm 2 m/s 769 mmHg 35%
    11:00 +16°C° 0 mm 3 m/s 768 mmHg 30%
    12:00 +17°C° 0 mm 3 m/s 768 mmHg 28%
    13:00 +18°C° 0 mm 3 m/s 767 mmHg 25%
    14:00 +19°C° 0 mm 3 m/s 766 mmHg 23%
    15:00 +19°C° 0 mm 3 m/s 766 mmHg 23%
    16:00 +18°C° 0 mm 2 m/s 766 mmHg 24%
    17:00 +18°C° 0 mm 2 m/s 765 mmHg 24%
    18:00 +17°C° 0 mm 2 m/s 765 mmHg 28%
    19:00 +15°C° 0 mm 1 m/s 765 mmHg 31%
    20:00 +13°C° 0 mm 1 m/s 765 mmHg 35%
    21:00 +13°C° 0 mm 1 m/s 765 mmHg 37%
    22:00 +12°C° 0 mm 1 m/s 765 mmHg 39%
    23:00 +12°C° 0 mm 1 m/s 765 mmHg 41%

    28 Setembro, Sexta-feira

    Tempo Temperatura Precipitação Vento Pressão Humidade
    00:00 +12°C° 0 mm 1 m/s 765 mmHg 41%
    01:00 +11°C° 0 mm 1 m/s 764 mmHg 42%
    02:00 +11°C° 0 mm 1 m/s 764 mmHg 42%
    03:00 +11°C° 0 mm 1 m/s 764 mmHg 42%
    04:00 +11°C° 0 mm 1 m/s 764 mmHg 42%
    05:00 +11°C° 0 mm 1 m/s 763 mmHg 41%
    06:00 +12°C° 0 mm 1 m/s 763 mmHg 39%
    07:00 +13°C° 0 mm 1 m/s 763 mmHg 36%
    08:00 +14°C° 0 mm 1 m/s 763 mmHg 33%
    09:00 +16°C° 0 mm 2 m/s 763 mmHg 31%
    10:00 +18°C° 0 mm 2 m/s 762 mmHg 29%
    11:00 +21°C° 0 mm 2 m/s 762 mmHg 27%
    12:00 +23°C° 0 mm 2 m/s 762 mmHg 28%
    13:00 +24°C° 0 mm 3 m/s 761 mmHg 29%
    14:00 +25°C° 0 mm 3 m/s 760 mmHg 29%
    15:00 +24°C° 0 mm 2 m/s 760 mmHg 31%
    16:00 +24°C° 0 mm 2 m/s 759 mmHg 33%
    17:00 +24°C° 0 mm 2 m/s 759 mmHg 34%
    18:00 +21°C° 0 mm 2 m/s 759 mmHg 40%
    19:00 +19°C° 0 mm 2 m/s 759 mmHg 46%
    20:00 +17°C° 0 mm 2 m/s 759 mmHg 52%
    21:00 +16°C° 0 mm 2 m/s 759 mmHg 56%
    22:00 +16°C° 0 mm 1 m/s 759 mmHg 60%
    23:00 +15°C° 0 mm 1 m/s 759 mmHg 65%

    29 Setembro, Sábado

    Tempo Temperatura Precipitação Vento Pressão Humidade
    00:00 +15°C° 0 mm 1 m/s 759 mmHg 67%
    01:00 +14°C° 0 mm 1 m/s 758 mmHg 69%
    02:00 +14°C° 0 mm 1 m/s 758 mmHg 70%
    03:00 +14°C° 0 mm 1 m/s 758 mmHg 71%
    04:00 +13°C° 0 mm 1 m/s 758 mmHg 72%
    05:00 +13°C° 0 mm 1 m/s 757 mmHg 72%
    06:00 +14°C° 0 mm 1 m/s 757 mmHg 67%
    07:00 +16°C° 0 mm 1 m/s 758 mmHg 62%
    08:00 +18°C° 0 mm 1 m/s 758 mmHg 57%
    09:00 +19°C° 0 mm 1 m/s 757 mmHg 53%
    10:00 +21°C° 0 mm 1 m/s 757 mmHg 48%
    11:00 +23°C° 0 mm 1 m/s 757 mmHg 43%
    12:00 +23°C° 0 mm 1 m/s 757 mmHg 41%
    13:00 +24°C° 0 mm 1 m/s 757 mmHg 39%
    14:00 +25°C° 0 mm 1 m/s 756 mmHg 38%
    15:00 +25°C° 0 mm 1 m/s 756 mmHg 39%
    16:00 +24°C° 0 mm 1 m/s 756 mmHg 40%
    17:00 +24°C° 0 mm 1 m/s 756 mmHg 41%
    18:00 +23°C° 0 mm 1 m/s 756 mmHg 45%
    19:00 +21°C° 0 mm 1 m/s 757 mmHg 49%
    20:00 +19°C° 0 mm 1 m/s 757 mmHg 53%
    21:00 +17°C° 0 mm 3 m/s 758 mmHg 59%
    22:00 +15°C° 0 mm 6 m/s 758 mmHg 65%
    23:00 +13°C° 0 mm 8 m/s 759 mmHg 71%
    Mostrar mais